Location: Peterborough
(44.3091°N, 78.3197°W)
Time: 15:40:20
(UTC-04:00)

Transit 2A Rocket - Pass Details

Date: 31 March 2023
Orbit: 584 x 914 km, 66.7° (Epoch: 04 June)

Event Time Altitude Azimuth Distance (km) Brightness Sun altitude
Rises 10:01:37 0° 177° (S) 3,227 8.6 31.3°
Reaches altitude 10° 10:04:12 10° 166° (SSE) 2,359 8.2 31.7°
Maximum altitude 10:08:49 29° 108° (ESE) 1,511 8.9 32.4°
Drops below altitude 10° 10:13:45 10° 51° (NE) 2,536 8.0 33.2°
Sets 10:16:38 0° 41° (NE) 3,514 8.5 33.6°
